RH
40 38 38 39 39 38 38 40 42 44 46 48 51 53 54 55 56 57 57 55 53 51 50 47 45 45 46 46 47 48 51 56 57 57 58 58 54 48 42 39 38 33 26 23 25 24 20 16 15 17 18 19 22 24 27 33 41 45 47 53 57 61 65 67 70 72 69 64 63 62 60 61 64 66 67 67 63 60 60 62 64 63 61 59 58
38 38 39 40 38 37 38 40 41 43 45 47 49 51 53 54 55 57 58 56 55 55 55 53 49 45 45 45 46 48 49 53 55 56 56 56 53 47 43 41 41 40 34 28 27 24 20 18 17 18 20 21 22 25 26 29 36 40 43 48 53 58 61 66 69 71 72 66 57 55 55 57 64 67 66 67 67 66 66 67 66 65 62 61 60
34 33 35 37 37 38 41 42 41 42 44 46 48 50 52 52 53 55 56 56 57 57 58 59 55 48 45 44 44 47 49 51 54 55 55 56 52 47 43 41 41 42 40 37 34 25 19 19 18 19 22 22 23 25 25 27 30 35 40 43 49 56 59 63 67 70 74 68 52 48 52 55 61 66 67 68 68 69 69 69 67 66 63 61 59
36 32 32 35 38 41 42 42 42 44 47 50 51 51 51 52 52 53 55 57 56 56 58 60 59 53 47 43 42 44 47 49 51 53 55 55 52 48 44 42 41 40 41 42 39 29 21 19 20 21 22 22 23 25 26 26 26 29 34 36 43 52 57 64 70 71 71 63 49 46 50 51 56 63 66 68 69 68 68 68 68 66 62 59 58
38 34 33 37 40 40 39 40 42 44 49 51 50 50 51 51 51 52 55 57 57 56 58 60 61 58 49 42 40 42 44 46 48 51 54 55 53 50 46 44 41 39 40 42 37 29 23 20 20 21 22 22 23 23 24 25 25 26 29 31 35 44 54 64 72 72 66 59 52 49 49 51 56 60 63 68 70 69 68 69 68 64 60 60 60
40 37 36 39 40 38 37 39 41 42 46 47 46 46 49 51 51 51 53 56 57 57 57 59 59 57 50 42 38 39 42 44 45 48 52 54 53 51 47 45 44 41 41 41 36 29 24 21 20 20 21 22 22 22 23 24 25 26 28 30 32 39 50 61 69 69 63 60 59 56 54 55 59 62 67 71 73 74 73 69 65 62 59 59 61
40 39 39 40 39 37 36 37 38 40 41 40 40 43 46 49 49 49 51 54 56 56 57 59 59 57 53 46 39 38 40 42 43 45 50 52 52 52 48 46 46 44 43 41 38 32 28 26 24 20 19 19 20 21 22 22 24 26 27 30 32 38 47 56 63 64 60 61 63 62 61 61 62 67 73 75 77 77 73 67 64 62 60 59 60
38 37 39 41 39 36 36 37 37 38 37 36 38 41 43 46 47 48 49 52 55 55 56 58 59 58 56 50 42 39 39 41 42 43 47 51 51 51 49 46 46 47 46 45 42 37 34 33 30 24 19 17 18 20 21 22 23 24 26 29 33 38 45 51 56 57 56 60 64 65 66 66 67 72 77 78 79 78 73 68 66 64 63 61 61
35 37 39 38 36 35 37 38 38 37 38 38 39 41 43 44 46 47 48 50 53 55 56 58 60 60 58 52 44 42 41 40 41 42 45 49 50 50 49 47 46 47 48 49 47 43 40 40 38 34 27 21 18 17 18 21 23 25 27 28 32 39 45 48 50 51 54 60 63 64 66 69 71 74 78 81 80 78 75 71 70 68 66 62 62
34 38 39 35 34 36 38 40 39 39 41 41 41 42 43 44 45 47 47 49 52 55 57 59 61 62 61 53 46 44 42 39 38 40 42 46 49 50 50 49 48 47 48 50 50 48 46 45 45 44 40 34 29 25 23 22 22 24 28 31 33 38 43 47 47 49 55 62 65 68 71 75 78 78 80 81 79 77 75 73 73 71 69 75 78
34 37 35 33 35 38 40 42 42 42 43 44 43 44 45 45 45 47 47 50 53 56 57 59 61 64 63 56 47 43 41 38 36 38 41 45 49 51 52 52 51 49 48 48 50 51 50 49 50 50 50 48 45 43 43 40 30 23 24 28 32 35 42 49 50 51 58 65 68 70 71 75 81 82 80 79 79 78 74 71 71 70 74 86 84
32 32 32 34 39 41 42 44 44 43 44 45 46 47 49 48 48 48 49 50 52 54 57 59 62 64 64 59 50 43 40 36 34 36 39 42 47 51 54 56 56 54 51 48 48 50 51 53 54 54 54 55 55 56 61 62 50 33 24 24 29 33 39 48 52 53 60 68 70 70 69 71 78 81 80 80 77 72 69 68 68 70 76 78 68
29 32 34 38 41 42 44 45 46 46 46 48 51 52 51 50 49 49 50 50 52 55 57 59 62 63 64 62 52 42 38 35 33 35 38 40 45 50 54 57 59 60 57 53 50 50 51 54 56 58 58 59 61 63 68 72 68 53 37 28 28 32 36 46 56 60 65 70 70 72 74 75 78 81 81 77 70 67 68 67 64 66 71 70 65
30 33 35 38 41 43 45 45 45 47 49 51 54 54 52 51 50 51 53 54 54 55 57 59 62 63 63 63 55 43 36 33 32 34 37 39 42 47 52 56 60 62 62 59 56 54 53 53 55 59 62 63 65 68 71 74 75 70 57 40 32 31 34 46 62 69 70 70 68 75 82 81 80 82 77 69 66 69 66 57 53 57 60 62 60
35 37 39 42 44 46 46 46 47 50 51 53 55 54 53 53 52 52 56 58 58 59 60 60 61 62 63 63 57 46 37 32 31 33 36 38 41 45 49 52 57 62 65 63 62 61 59 57 57 60 64 66 68 72 77 79 79 78 71 55 41 34 34 47 63 70 71 71 74 81 87 84 82 79 71 68 68 66 57 48 47 51 50 50 50
39 41 44 45 47 49 51 53 55 56 57 59 59 58 56 54 54 55 57 59 63 67 67 64 64 64 62 62 58 48 38 32 29 31 34 36 39 43 47 50 54 60 64 65 65 65 64 63 63 64 66 67 70 76 82 85 83 80 79 70 54 40 37 47 61 70 77 82 84 85 86 84 81 75 71 71 66 56 49 46 47 48 45 49 56
36 38 40 44 47 50 51 53 55 55 57 58 57 56 54 52 53 55 55 58 64 66 67 72 77 73 65 61 58 50 40 33 29 29 32 35 39 42 45 50 54 58 63 66 66 66 65 65 66 68 68 69 74 80 85 88 87 84 84 79 64 47 42 47 58 71 81 86 86 86 87 84 79 75 73 68 57 48 46 46 48 52 54 59 69
33 34 36 40 43 43 41 42 46 49 51 52 50 50 50 51 53 54 53 56 56 56 63 76 82 77 66 60 58 53 45 36 30 28 30 32 37 41 45 51 56 59 64 67 66 66 66 66 68 70 71 73 78 83 87 91 91 88 87 80 64 50 46 50 60 72 79 84 87 89 88 82 78 75 68 57 49 46 45 45 48 55 60 65 73
29 30 33 37 38 38 39 41 45 48 49 50 51 51 53 55 56 56 57 59 58 61 72 80 81 77 68 61 58 56 53 47 38 32 32 32 36 42 49 56 60 62 65 67 67 67 68 69 69 72 76 80 82 86 90 93 93 92 89 79 63 53 51 53 60 68 75 83 87 86 84 80 76 69 57 49 47 46 44 44 45 48 55 63 70
30 33 37 40 40 42 43 45 47 49 49 51 54 56 57 57 57 58 61 63 64 70 79 83 80 75 69 66 63 56 54 55 48 39 37 38 40 46 52 57 61 64 66 67 67 68 69 70 71 75 81 84 86 89 92 94 95 94 90 81 68 60 56 57 65 75 83 88 88 84 82 79 70 58 50 47 48 46 44 45 45 47 54 63 69
36 39 42 43 44 46 47 47 48 49 50 52 55 58 60 60 60 61 62 64 70 79 86 89 87 83 80 79 74 61 54 56 54 47 44 46 47 52 56 54 54 60 66 68 68 69 70 71 74 78 82 86 88 91 92 95 96 95 91 85 74 64 61 67 77 87 91 90 86 83 81 73 60 51 49 49 48 47 46 46 48 52 57 62 65
39 41 43 44 45 46 47 48 49 51 54 57 58 60 63 65 65 64 65 71 79 86 91 94 93 94 95 91 81 67 56 54 55 53 52 51 51 53 56 53 50 57 67 70 69 70 71 73 77 80 83 88 90 90 92 95 97 96 93 85 73 69 76 84 88 91 91 87 83 81 76 64 53 49 50 51 50 50 50 50 53 56 57 59 60
43 44 44 45 44 44 45 46 48 50 53 55 57 60 64 67 68 66 67 73 82 87 92 95 97 100 99 91 82 72 60 54 55 56 57 58 56 56 58 56 52 58 67 70 70 71 72 75 80 84 88 92 93 92 94 96 97 97 91 79 73 80 89 88 86 88 88 81 79 78 69 57 50 51 52 52 53 53 53 55 56 58 58 59 60
49 49 48 48 48 47 48 48 49 51 52 54 57 61 63 65 67 67 67 71 77 82 84 85 90 98 99 94 91 83 68 58 54 54 59 63 60 60 64 62 56 60 70 73 72 73 75 78 83 89 93 96 97 97 98 98 96 92 84 76 79 86 84 77 77 81 80 77 77 73 62 52 50 52 53 54 55 56 56 58 59 59 60 60 60
51 51 51 51 52 52 53 53 54 55 56 58 60 61 63 67 69 70 69 70 75 81 85 83 82 84 87 91 95 94 86 74 61 56 62 66 64 65 69 66 62 65 73 76 76 75 79 84 89 93 96 98 99 100 99 98 93 85 79 80 85 84 76 71 73 74 74 76 75 67 56 51 52 54 55 56 57 57 58 60 60 61 62 61 61
53 52 52 53 54 55 56 57 58 58 61 64 65 64 65 70 72 73 74 75 76 81 89 90 81 72 69 75 84 95 100 94 81 73 73 74 74 75 74 70 69 72 76 79 80 81 86 91 94 97 99 100 99 99 98 95 89 81 80 86 89 84 76 72 72 72 73 75 73 63 53 52 54 55 56 58 59 59 60 60 61 62 62 62 63
58 58 58 59 59 61 62 62 62 62 62 64 67 68 68 70 73 76 80 83 83 84 87 91 90 84 80 80 84 90 95 98 97 95 91 89 89 88 85 82 82 85 88 89 89 91 94 94 95 98 100 100 100 99 95 90 83 81 87 94 91 82 74 71 71 72 74 75 69 58 52 53 56 57 58 59 60 60 61 61 62 63 63 63 65
65 67 68 68 68 68 69 68 67 68 68 67 67 69 70 70 71 73 74 78 82 86 89 92 92 88 87 92 96 95 94 94 92 88 90 95 95 92 92 93 92 93 97 96 93 96 97 96 96 99 100 100 101 98 92 86 83 85 91 94 88 77 73 74 77 77 77 74 63 53 52 56 57 58 59 60 60 61 62 63 63 63 64 65 65
61 66 71 77 81 80 78 77 75 73 72 72 71 71 72 71 71 70 68 68 72 77 81 83 79 71 73 84 94 95 89 81 70 64 71 82 84 83 87 92 94 94 95 92 92 96 100 99 99 100 99 100 99 94 89 90 92 93 91 85 78 73 74 77 77 76 74 68 58 52 55 58 58 60 61 61 61 63 63 63 64 64 65 65 63
55 59 64 72 79 82 85 90 90 85 80 79 77 76 76 77 77 76 74 73 74 76 77 79 77 72 70 73 77 75 67 60 58 60 61 63 69 76 81 87 94 99 97 94 93 97 100 99 96 94 94 96 93 87 86 93 99 97 89 80 73 72 73 73 71 71 69 64 57 55 58 60 61 63 63 63 64 65 66 67 67 65 65 65 61
54 56 58 61 65 69 75 83 88 89 89 88 86 82 80 78 78 79 78 79 81 82 81 81 82 84 83 80 77 73 67 65 72 76 72 69 75 84 87 88 94 99 98 97 98 100 101 96 89 86 89 91 87 82 83 95 101 95 84 78 75 72 70 68 68 70 68 61 57 58 61 63 64 65 66 68 70 70 72 72 68 65 66 63 57
51 52 54 55 56 59 62 67 72 78 84 91 95 95 93 90 87 83 80 80 81 83 83 83 83 85 88 88 87 85 81 79 82 86 88 85 82 85 90 94 95 97 98 97 98 100 99 89 81 81 84 85 81 78 82 94 97 87 78 75 74 70 67 65 67 69 67 61 58 61 64 65 66 68 71 74 76 78 76 71 67 66 65 59 53
45 47 48 49 50 52 55 57 61 64 69 76 83 89 93 96 96 94 92 90 88 86 86 87 88 89 90 92 95 94 90 85 82 85 93 91 79 77 87 93 94 98 99 97 98 101 98 87 79 78 81 81 77 76 82 89 86 80 76 73 68 63 62 63 68 70 66 61 61 64 66 66 68 71 75 77 79 79 75 68 67 67 61 55 54
42 43 45 47 49 51 53 56 59 61 64 68 72 76 81 84 86 88 92 94 95 95 94 92 93 94 95 96 97 98 98 96 89 87 93 93 85 84 93 96 97 99 98 96 98 97 89 85 85 82 80 79 76 74 78 81 80 78 77 72 65 61 59 62 69 70 64 61 64 67 67 68 70 73 78 79 76 73 70 67 67 63 55 52 55
45 46 47 51 52 51 52 56 59 62 64 66 68 71 74 75 77 79 81 83 89 95 97 96 96 97 98 100 100 99 99 101 98 93 93 93 91 92 98 100 100 100 99 98 95 83 72 76 86 86 78 76 76 76 76 79 80 79 74 68 64 62 61 65 69 66 61 62 67 68 68 69 71 72 74 73 70 68 68 67 63 55 49 51 55
47 45 47 51 53 51 50 52 54 57 57 56 58 63 68 73 78 80 79 79 82 84 86 87 87 86 86 92 100 101 99 99 100 98 95 94 93 96 101 101 99 99 100 95 86 79 77 80 84 84 80 78 78 79 78 79 80 76 70 65 62 60 63 66 65 61 62 67 69 69 68 69 69 70 70 68 67 68 67 63 56 49 47 51 53
44 42 44 48 48 48 47 47 48 51 49 46 48 55 61 68 73 74 72 70 70 69 66 64 68 74 81 89 97 101 100 99 100 99 97 95 95 98 101 99 96 99 96 81 68 73 83 83 77 77 80 80 78 78 79 80 77 72 68 65 63 61 63 63 60 62 67 70 69 67 66 66 68 69 68 68 68 68 63 56 49 46 45 42 38
43 43 46 48 47 46 46 46 48 49 46 43 44 47 52 59 64 63 58 55 56 59 59 59 68 82 91 93 96 99 100 99 100 100 99 99 98 98 100 99 96 93 84 68 59 68 79 78 74 77 82 83 81 80 80 77 73 70 68 67 66 64 63 62 64 68 70 68 66 64 62 65 68 69 68 69 68 63 58 52 49 50 49 43 37
52 50 53 56 55 52 48 48 51 52 49 49 51 49 50 56 60 56 50 48 53 59 62 67 78 89 93 95 100 101 98 99 103 101 98 98 99 99 99 96 88 79 72 68 72 79 81 78 79 83 85 85 83 80 76 72 70 70 69 67 65 65 64 65 67 68 66 64 63 58 56 60 65 66 66 65 62 58 55 52 50 51 53 52 50
66 65 66 69 69 64 56 52 56 58 56 56 58 56 51 51 53 52 49 49 52 56 56 59 70 82 86 89 91 86 82 91 103 102 98 101 103 97 88 79 73 70 70 73 79 83 83 83 86 89 89 86 82 77 73 69 67 67 67 65 63 64 64 64 65 64 63 61 56 49 46 49 53 55 57 57 56 56 54 51 51 52 50 50 50
79 78 78 79 79 75 67 61 62 67 67 65 66 65 59 53 51 52 52 50 49 50 49 50 59 73 81 83 82 77 77 90 103 102 97 95 89 74 60 59 66 74 76 76 79 84 88 90 91 90 89 87 82 75 70 66 63 63 64 65 65 64 64 64 64 62 59 54 47 41 38 39 43 48 52 53 55 55 52 50 52 53 51 49 51
86 85 84 83 83 83 79 71 69 75 77 74 74 74 70 64 60 57 56 53 51 50 51 54 59 65 69 70 70 68 70 80 90 92 89 85 76 59 49 54 69 79 80 79 82 87 92 94 93 90 87 83 77 70 64 62 61 62 64 65 64 64 64 64 62 59 55 50 47 44 43 43 47 52 54 54 55 55 52 51 53 54 53 54 54
86 86 87 87 84 84 83 78 77 82 84 83 84 84 78 73 73 71 65 61 56 50 50 54 57 55 52 53 55 55 56 61 68 72 74 72 66 60 60 68 78 81 81 83 85 87 89 91 89 83 77 71 64 59 56 56 58 61 63 63 63 64 64 62 60 57 54 52 52 52 52 53 54 54 54 54 55 56 55 53 52 53 55 56 55
82 84 88 89 88 87 86 81 79 83 87 88 91 93 87 82 84 84 77 71 67 60 53 52 56 58 60 63 63 59 56 57 57 57 55 53 51 54 66 77 82 81 82 85 85 84 82 78 73 69 66 61 56 53 53 55 57 59 61 63 64 64 64 61 58 57 55 53 53 54 54 55 54 54 55 57 58 58 58 55 53 53 54 54 53
77 81 85 87 88 89 89 86 81 82 83 85 90 95 95 93 93 92 86 79 77 73 64 57 59 65 72 75 72 66 61 59 56 52 50 49 53 62 73 79 80 80 81 80 76 71 67 63 61 60 60 58 57 57 57 58 59 60 62 64 64 63 62 61 60 59 57 54 52 53 53 55 56 57 59 61 60 59 58 57 54 52 52 51 51
76 80 83 83 82 83 87 89 89 87 85 85 87 90 93 94 93 93 91 85 80 79 75 70 69 70 71 72 73 72 69 66 65 67 70 73 76 79 79 77 74 74 73 68 64 62 62 61 60 59 57 55 58 61 62 63 65 66 66 66 64 63 63 63 62 62 60 57 56 57 57 59 61 62 62 62 61 59 59 58 56 53 51 50 49
77 79 79 78 77 77 78 81 84 86 87 87 86 86 88 92 93 92 92 89 85 81 79 78 78 78 78 80 85 87 83 80 80 81 81 79 78 75 72 69 68 68 68 67 65 64 64 64 62 60 58 57 58 61 64 67 69 69 68 67 66 66 65 65 65 64 63 62 61 62 62 62 64 64 63 63 62 60 57 55 52 50 48 47 45
76 77 77 74 72 71 69 69 72 74 77 82 86 87 89 92 94 93 93 93 92 88 83 82 82 83 85 89 93 93 90 90 90 84 76 74 76 75 73 71 70 68 69 70 67 62 61 62 61 61 61 60 59 62 66 69 69 68 68 68 68 67 67 67 68 68 67 66 65 64 64 65 66 66 64 63 61 58 56 54 51 49 47 46 42
73 74 76 75 73 72 70 69 70 72 74 78 85 89 91 92 94 94 95 95 94 91 87 85 85 84 82 84 87 87 87 90 89 85 82 84 83 76 69 66 63 59 58 61 61 59 57 57 57 60 63 64 65 66 68 68 68 69 69 69 68 68 69 70 70 71 70 68 67 66 66 66 66 64 62 62 59 55 52 50 49 48 48 46 41
73 74 75 76 76 77 77 75 75 78 82 83 83 84 87 87 88 90 92 89 86 85 85 84 86 86 85 84 85 85 87 89 89 88 88 86 79 69 64 64 66 65 62 60 60 59 57 57 59 62 65 68 71 72 70 69 69 70 70 69 69 71 72 72 72 72 72 70 67 67 67 64 58 53 51 52 52 50 48 47 46 46 45 41 32
68 71 73 73 74 76 78 79 79 80 85 88 87 85 85 83 84 87 88 83 79 81 82 82 83 86 87 86 85 84 85 87 89 88 85 81 78 75 72 69 69 69 65 58 54 55 57 60 63 65 67 71 74 73 72 72 74 72 71 71 72 72 72 72 72 73 72 70 68 68 65 54 41 34 36 41 44 45 43 41 38 34 31 26 21
Wind_Speed
53 52 50 50 49 48 46 45 44 43 43 42 41 40 39 37 35 33 32 31 30 31 30 31 30 29 28 27 26 26 26 25 25 23 23 23 23 23 23 23 23 22 21 21 20 18 17 16 15 15 14 14 14 14 14 13 13 13 13 13 13 13 13 13 13 13 13 12 11 11 9 9 8 7 7 8 9 10 10 10 9 9 10 12 14
53 52 50 49 49 47 46 46 45 45 44 44 43 42 41 39 37 35 34 33 31 31 31 31 32 32 31 30 29 28 27 26 25 24 24 24 24 24 25 25 25 24 23 22 21 20 19 18 17 16 16 15 15 15 15 15 14 14 13 13 13 13 13 12 13 13 13 12 11 10 9 8 7 7 7 8 9 9 10 9 9 10 11 13 15
54 52 50 49 48 47 46 46 45 45 45 45 45 44 42 40 39 37 36 35 33 33 32 31 32 33 33 33 32 31 30 28 27 26 25 25 25 25 26 26 26 26 25 24 23 22 21 20 19 18 17 16 16 16 16 16 16 15 14 14 14 14 13 12 12 13 13 13 11 9 9 8 7 7 7 8 10 10 10 10 10 12 14 15 17
56 54 52 50 49 48 47 47 46 46 46 47 46 45 44 42 41 39 38 37 36 34 33 32 32 33 35 35 35 34 33 31 29 28 26 26 26 26 27 27 27 27 26 25 23 23 23 22 21 20 18 17 18 17 17 17 17 16 16 15 15 15 14 13 13 13 13 13 12 10 9 9 9 9 10 10 10 10 10 11 12 13 16 18 19
57 56 53 52 51 50 49 48 47 47 47 47 46 44 44 43 42 41 40 39 38 36 34 33 33 34 36 37 37 36 36 34 32 29 28 28 27 28 28 28 28 28 27 25 24 23 23 23 22 21 19 19 20 19 18 18 18 18 17 16 16 16 16 15 14 14 14 14 13 12 11 10 10 10 10 10 10 10 11 12 14 15 17 20 21
57 57 55 54 53 52 51 50 49 49 48 47 45 44 44 43 42 41 40 40 40 38 36 35 34 35 36 37 38 37 37 36 34 31 30 29 29 29 30 30 29 29 28 26 25 24 24 23 23 22 21 21 21 21 20 19 19 18 17 17 16 16 17 16 15 14 14 15 14 14 12 11 10 10 10 9 10 11 12 15 17 18 19 20 21
56 57 56 54 54 54 53 52 51 50 48 46 45 44 44 44 43 41 40 41 41 40 38 36 35 36 36 37 38 38 38 38 35 32 31 31 31 30 31 31 31 31 29 27 26 26 25 24 24 23 22 22 22 23 23 22 21 20 18 17 16 17 17 17 15 15 15 16 16 15 13 11 11 11 11 10 11 12 14 16 18 20 22 22 21
56 56 55 54 54 54 54 53 51 50 49 47 46 46 45 44 43 42 41 41 42 40 38 37 36 36 36 37 38 39 39 39 37 35 34 33 33 32 32 32 32 32 31 29 28 28 27 26 26 25 24 23 23 24 24 24 23 21 20 18 18 18 18 17 16 15 16 17 17 16 14 13 12 12 12 12 12 14 16 18 20 22 22 23 23
55 54 54 54 54 54 54 53 52 51 50 48 48 47 47 45 44 43 42 42 42 40 39 37 37 37 37 37 39 40 41 41 39 37 36 35 35 34 33 33 33 33 32 30 29 29 29 29 28 27 25 23 23 23 24 24 23 22 21 20 19 19 19 18 17 17 17 18 18 17 15 14 14 13 13 13 14 15 17 19 21 21 22 23 23
53 53 54 54 53 53 53 52 52 52 51 50 50 49 48 47 45 44 43 42 42 42 40 39 39 39 38 38 40 41 43 43 41 39 37 36 36 36 35 34 34 33 32 31 30 30 30 30 29 28 26 25 24 24 23 22 22 22 22 21 21 21 20 19 19 18 19 19 18 17 15 15 14 14 13 14 15 16 18 19 20 21 22 19 16
52 52 53 53 53 52 52 51 52 52 52 51 51 49 49 48 46 45 44 44 44 43 42 41 40 40 39 39 40 43 45 45 43 40 38 37 37 37 36 35 34 34 33 32 32 31 30 30 30 29 28 26 26 25 24 22 21 22 23 23 22 22 21 21 20 19 18 18 17 16 16 15 15 15 14 15 16 17 18 20 20 20 18 14 14
51 52 52 52 52 51 51 52 52 51 51 51 51 50 49 48 47 46 45 45 44 44 44 43 41 40 40 41 42 44 46 46 44 41 39 38 38 38 38 36 35 35 34 33 32 31 31 30 30 30 29 28 28 27 25 23 22 22 24 24 23 22 22 21 20 19 19 17 16 16 16 16 16 16 16 16 16 17 18 19 19 17 14 13 17
50 51 52 52 51 51 51 52 52 52 51 51 50 50 49 49 48 47 46 45 45 45 45 43 42 41 42 42 43 44 46 47 45 42 40 39 39 39 39 38 37 36 34 33 32 31 31 31 31 30 29 29 30 29 26 23 23 24 24 23 23 22 22 21 20 20 19 18 17 17 16 16 17 17 17 16 16 16 17 18 16 14 13 14 17
50 51 51 52 51 51 51 51 52 52 51 51 50 50 50 49 49 48 48 47 46 47 47 45 44 43 43 43 43 44 46 48 46 43 42 41 40 40 40 39 37 36 35 34 33 32 31 31 32 31 30 30 31 29 26 24 24 24 25 24 23 22 22 22 21 21 21 19 18 17 18 18 18 18 17 16 15 16 16 16 15 15 15 17 18
49 50 51 51 50 51 52 52 52 52 51 51 50 50 50 49 49 49 49 49 49 48 47 46 45 45 44 43 43 44 46 48 47 45 43 42 41 41 41 40 38 37 36 35 34 33 32 31 30 30 30 31 31 27 24 23 23 25 25 24 23 22 23 22 22 21 21 19 18 18 19 20 18 17 16 15 15 15 15 15 16 17 18 19 20
47 48 50 50 50 50 50 50 51 51 50 50 50 50 50 50 49 49 49 50 49 48 48 48 47 46 45 44 44 45 46 48 47 46 44 43 42 42 42 41 40 39 37 36 35 34 33 30 29 29 30 31 30 25 22 21 22 24 25 24 22 22 23 23 22 21 20 19 19 19 20 20 18 16 15 14 14 15 15 16 17 17 17 17 16
45 47 48 49 50 49 49 49 49 49 49 50 50 50 50 49 49 48 48 49 49 49 49 47 45 45 46 45 45 45 46 47 48 46 45 44 44 43 43 42 41 41 38 36 35 35 33 31 29 29 31 32 28 24 22 22 23 24 25 24 23 23 24 23 22 21 21 21 20 20 19 19 17 14 14 13 13 14 14 15 14 13 13 12 10
44 45 46 48 49 48 46 47 48 49 50 50 50 49 49 49 49 48 48 48 50 51 49 45 43 45 48 47 46 46 45 46 47 46 45 45 45 45 43 42 42 41 39 37 36 35 33 31 29 31 32 31 27 24 22 23 24 25 25 24 23 23 24 23 22 22 22 21 21 19 18 17 15 13 12 12 13 13 12 12 11 10 9 8 7
41 43 45 47 47 45 44 46 48 48 49 49 49 49 49 49 49 49 49 49 49 48 45 43 43 45 47 48 47 46 45 45 46 46 45 46 46 45 43 42 42 41 39 37 36 35 34 32 32 33 32 29 26 24 23 23 25 26 25 24 23 23 22 22 21 22 22 21 20 19 17 15 13 12 11 11 11 11 10 10 10 8 7 6 7
39 41 43 44 43 42 43 45 47 47 47 47 48 48 48 48 49 48 49 50 50 47 44 42 42 44 47 48 47 47 46 46 46 47 46 45 45 44 43 43 42 41 40 38 37 36 35 34 34 33 31 28 26 24 23 23 24 25 25 25 24 21 20 20 20 20 20 19 18 17 15 13 11 10 10 10 9 9 9 9 8 7 6 6 7
36 38 39 40 40 41 42 43 44 45 45 45 46 47 47 48 48 48 49 50 49 47 42 39 40 41 41 41 43 46 47 47 47 47 47 45 44 43 43 43 42 42 40 38 37 37 36 35 36 34 30 28 26 25 24 23 23 24 25 25 22 19 18 18 19 19 19 19 18 16 14 12 11 9 9 8 8 8 8 8 7 6 6 7 8
30 32 34 35 37 39 40 41 42 44 44 43 44 45 46 48 48 48 49 48 46 43 41 39 38 35 33 36 42 46 48 48 48 47 47 45 43 43 43 42 41 41 39 38 38 37 36 36 36 32 29 27 26 25 25 24 23 24 25 23 20 18 17 18 19 21 21 20 18 16 14 12 10 9 8 7 7 7 6 6 6 6 7 9 10
26 28 30 32 34 35 37 38 39 41 42 42 42 44 46 47 48 47 48 48 47 44 43 40 36 32 34 39 44 46 49 49 48 47 47 45 43 43 42 40 40 40 39 38 38 37 36 36 33 29 27 26 26 25 25 24 23 24 24 23 21 20 19 20 21 22 22 21 18 16 14 12 10 9 8 7 6 6 6 6 7 8 9 11 12
24 26 28 30 32 33 34 36 37 39 40 40 41 43 45 47 47 47 47 48 49 49 47 46 42 39 39 39 40 44 49 50 48 48 48 46 45 43 40 38 38 39 38 38 37 36 35 33 30 27 26 26 24 24 24 24 24 25 25 24 23 22 21 21 22 22 22 21 18 16 14 12 10 9 8 7 7 6 6 7 8 9 11 12 14
20 22 25 27 29 30 32 34 35 37 39 40 41 43 45 46 48 49 48 49 51 50 48 48 49 49 47 44 43 44 46 48 49 50 49 47 46 43 39 37 38 38 38 37 37 35 32 29 27 27 26 25 23 23 24 25 25 26 27 26 25 24 22 22 22 23 22 20 18 16 13 12 10 9 8 7 7 6 6 7 9 10 12 14 15
16 18 20 22 24 26 29 31 33 35 37 39 40 42 44 46 48 49 49 50 52 51 48 48 52 56 55 54 52 48 45 46 50 51 49 48 46 43 39 37 38 38 37 36 35 33 30 29 28 27 26 25 24 25 26 27 28 29 28 27 26 24 23 22 23 23 22 19 17 15 13 12 11 9 8 7 7 7 7 9 10 12 14 15 16
13 14 16 18 20 22 25 28 30 32 35 37 39 41 43 46 48 50 50 49 50 53 50 47 49 53 53 52 52 52 50 48 48 49 49 48 47 44 40 38 38 38 37 37 35 33 32 30 27 25 24 24 25 26 28 29 31 31 29 28 26 24 22 21 22 21 20 18 16 15 14 13 11 9 9 8 8 8 9 10 11 13 15 16 17
11 12 13 15 16 19 22 25 27 30 33 35 38 40 43 45 48 50 51 50 50 51 48 44 44 49 50 46 43 47 52 51 51 53 53 50 47 44 43 42 41 41 41 40 37 35 33 30 26 24 24 26 27 30 31 32 32 32 31 29 27 24 21 21 21 20 19 18 17 16 14 13 11 10 10 10 10 10 11 11 13 14 15 16 17
10 10 11 11 12 14 18 20 23 27 31 34 37 40 42 44 47 49 50 51 52 52 51 50 51 55 55 50 46 50 56 56 56 57 54 50 47 45 44 46 45 44 45 43 41 39 36 31 28 28 28 29 31 33 34 34 33 33 31 29 26 24 23 23 23 22 21 19 18 16 14 12 11 11 11 11 12 12 12 13 14 15 15 17 17
8 9 10 10 11 13 14 15 17 21 26 29 33 36 39 41 44 47 49 50 51 52 53 55 55 56 56 56 56 58 59 58 58 57 53 50 48 46 44 46 47 47 47 45 43 42 38 34 33 33 32 33 35 36 36 36 35 34 30 28 25 24 24 24 23 22 21 19 17 16 14 13 12 12 12 12 13 14 14 14 15 15 15 17 16
3 4 6 8 9 12 13 14 16 19 22 25 28 32 36 38 41 43 45 47 50 52 54 56 57 57 57 58 59 59 59 58 58 58 55 50 48 46 45 46 48 49 49 48 46 43 41 41 40 39 37 37 38 39 38 37 36 34 30 28 26 25 24 24 23 21 20 19 18 16 15 13 13 12 12 13 15 15 15 15 15 15 15 16 15
6 6 6 7 8 9 12 14 16 19 21 22 25 27 31 34 37 38 40 44 47 50 53 56 58 59 60 61 61 61 61 60 60 60 57 50 45 44 44 46 49 51 52 51 48 47 46 45 43 41 41 41 40 39 39 38 36 33 29 28 27 26 24 23 22 21 20 20 18 17 15 13 12 12 13 14 15 15 15 15 14 14 16 17 15
9 9 10 10 10 10 11 11 13 15 16 18 21 23 25 28 31 34 36 39 43 47 52 56 59 60 61 62 63 63 64 63 62 62 59 52 46 45 47 48 49 52 53 52 50 48 46 44 43 42 42 42 42 41 39 38 35 31 29 27 26 26 25 23 21 21 21 20 18 16 14 13 12 14 15 15 15 15 15 14 14 15 17 15 12
15 14 15 15 15 15 14 14 13 13 14 15 17 20 23 25 28 30 33 35 37 40 44 50 55 59 62 63 63 64 66 65 63 62 59 52 47 47 49 49 48 50 52 51 49 45 41 41 42 42 41 41 42 40 38 36 34 31 28 27 26 25 24 22 22 22 22 20 18 16 14 13 13 15 16 16 15 14 14 14 14 16 15 12 10
16 16 17 17 17 17 16 14 13 13 13 13 13 15 17 20 23 27 30 33 35 36 38 41 46 51 56 61 63 64 65 66 64 63 60 55 52 52 52 51 50 50 51 49 45 40 39 41 43 43 41 40 40 39 37 35 33 30 28 28 27 25 23 23 23 23 22 19 17 16 14 14 15 15 16 16 15 14 14 13 13 14 12 10 9
15 15 16 17 17 18 16 14 13 14 15 16 16 17 16 14 14 17 21 25 28 32 35 38 41 43 47 54 60 65 67 66 66 66 63 58 56 57 57 56 55 54 51 46 41 39 40 43 42 40 40 41 40 38 36 34 31 30 29 29 28 25 24 25 24 23 20 18 17 16 15 15 16 16 16 16 15 15 14 12 11 11 10 9 9
13 13 14 15 15 16 16 15 14 14 16 18 20 23 23 22 19 18 18 19 22 25 28 32 36 39 42 48 55 62 67 68 67 67 67 62 58 59 60 59 59 58 53 46 41 41 41 41 38 37 39 40 38 36 34 32 31 31 31 29 27 25 25 24 22 20 19 18 17 16 16 16 17 17 17 16 15 14 12 11 10 10 9 9 9
12 12 12 12 13 14 14 15 15 14 15 17 20 22 23 23 23 22 24 25 24 23 25 27 28 31 37 45 54 60 65 70 71 68 65 61 57 57 60 58 55 53 50 46 44 44 44 41 39 38 39 38 35 33 33 33 31 31 30 28 26 25 24 22 21 20 19 18 17 16 16 16 17 18 17 15 14 12 11 10 9 8 8 8 9
12 11 10 10 11 11 11 12 12 13 13 15 18 19 20 20 20 20 22 27 29 28 28 23 16 19 24 32 42 47 48 60 73 71 64 61 61 58 56 54 49 46 46 46 45 45 44 41 39 38 37 35 33 33 34 33 32 31 30 28 27 26 25 23 22 20 19 17 16 16 16 16 18 17 16 14 13 12 11 10 8 8 7 6 7
12 11 10 9 9 9 9 9 9 10 11 13 14 15 16 17 16 15 17 22 26 29 32 29 19 11 10 11 24 29 29 41 63 67 57 58 64 60 51 47 44 43 45 45 44 42 41 39 37 36 34 32 33 33 33 32 32 31 29 28 27 26 25 23 21 19 17 16 16 15 15 16 16 16 15 14 13 12 11 10 9 8 8 7 7
12 11 9 7 7 7 7 7 6 7 9 10 10 11 12 13 14 13 13 16 20 22 25 29 30 24 17 10 6 8 11 21 42 51 47 48 55 53 44 39 41 43 44 42 40 39 38 37 35 33 32 32 32 33 32 32 31 30 28 27 27 25 23 21 19 17 16 15 14 14 13 14 15 14 14 14 13 12 11 10 9 9 8 8 8
12 11 9 8 6 6 6 6 7 6 6 7 7 7 8 10 12 11 10 11 14 16 18 22 26 26 22 20 21 20 18 17 25 37 42 41 42 42 38 35 38 40 39 37 37 36 36 35 33 33 33 33 33 33 32 32 30 29 28 28 26 24 22 20 18 16 15 15 14 13 13 14 14 14 14 13 12 11 11 10 10 10 9 8 9
11 11 10 9 8 6 6 6 7 6 5 4 4 4 5 7 9 10 9 6 6 9 12 15 17 16 16 15 17 20 22 20 20 25 30 29 28 30 31 32 34 35 34 33 33 33 32 32 32 33 33 33 33 32 31 30 29 29 28 27 25 23 21 19 17 16 15 14 13 12 13 14 14 14 13 12 11 11 11 11 10 11 10 9 9
12 12 12 11 11 10 8 7 7 7 6 4 3 2 2 4 7 9 9 5 4 5 7 11 13 12 14 16 15 15 18 20 18 18 18 18 19 22 27 31 33 32 32 31 30 30 30 32 32 33 33 32 31 30 29 28 28 27 26 25 23 22 20 18 17 15 13 12 11 12 13 13 13 12 11 11 11 11 12 12 12 11 11 10 9
14 14 14 14 13 12 10 8 7 7 6 5 5 4 2 3 6 8 7 4 2 4 6 9 12 15 16 17 16 16 17 18 17 17 17 19 22 26 31 33 32 30 30 29 29 30 31 31 32 32 31 30 29 28 27 26 26 24 23 23 22 20 19 17 16 13 11 10 10 10 10 11 10 11 11 11 12 12 12 12 12 12 12 11 10
16 16 15 14 13 13 13 11 10 8 7 6 6 6 4 4 6 6 5 3 1 4 6 8 12 16 19 18 17 17 17 17 19 21 24 27 29 31 31 30 28 28 27 27 27 28 29 29 30 30 29 29 28 27 26 25 24 23 22 20 19 18 17 16 14 11 9 8 7 7 8 9 10 11 12 13 14 14 13 13 13 13 12 11 11
19 18 18 16 16 16 16 16 15 13 11 9 7 7 5 5 6 6 5 3 2 4 7 9 11 14 16 17 17 17 18 19 21 23 25 27 28 27 27 26 26 26 26 25 25 26 27 27 28 28 27 27 27 26 26 26 25 23 22 20 19 18 17 15 13 10 7 6 6 6 7 9 11 13 15 15 16 16 15 14 14 14 13 13 12
23 23 23 22 21 21 21 22 22 21 19 17 13 9 7 6 6 7 6 4 2 2 6 10 13 14 14 14 14 16 18 21 22 23 24 25 24 22 23 24 24 24 24 23 24 25 26 27 27 26 26 26 26 26 26 27 26 24 23 21 20 19 17 15 12 10 8 7 7 8 9 11 13 16 17 17 18 17 16 15 14 14 14 13 13
24 24 24 24 24 23 23 24 24 24 24 24 22 18 13 9 7 6 6 5 4 1 3 7 11 13 15 15 15 13 13 15 17 18 20 22 22 21 22 23 23 23 23 23 23 24 25 25 26 25 25 25 25 25 26 26 25 23 22 21 20 19 17 14 12 10 9 9 9 10 11 13 15 17 18 18 19 18 17 15 15 14 14 14 13
23 22 22 23 22 22 22 22 23 23 24 24 25 24 21 17 12 9 8 7 5 5 3 2 4 7 8 10 9 7 6 8 10 11 15 19 21 21 22 22 21 21 21 21 21 22 22 22 23 23 24 24 25 25 25 25 23 22 21 20 19 18 16 14 12 10 10 10 10 11 12 15 16 18 18 18 18 18 17 16 16 15 14 14 13
22 21 21 21 21 21 20 21 21 21 22 22 23 23 23 22 20 17 14 11 10 11 11 7 4 4 6 7 9 8 9 10 10 11 14 18 20 19 19 18 17 17 18 18 18 19 20 20 21 22 23 24 25 25 24 23 22 20 20 20 19 17 15 13 11 10 10 11 11 12 14 16 16 16 16 16 16 16 15 15 15 14 14 13 11
Wind_Direction
235 236 236 236 236 236 236 236 236 236 237 238 238 238 239 240 240 240 240 238 235 234 233 232 233 233 232 233 235 238 239 239 240 239 236 233 231 230 230 230 233 234 231 230 230 228 227 229 232 236 242 249 256 260 260 257 254 254 257 260 263 268 274 278 280 284 290 296 299 299 298 297 292 279 269 267 265 265 270 280 288 293 298 306 315
235 237 236 237 238 238 237 237 238 238 237 238 238 238 238 239 239 240 240 239 237 235 234 233 233 233 233 233 234 236 238 238 238 237 235 233 231 231 230 230 232 232 232 232 231 230 229 229 232 235 239 247 254 258 260 259 255 255 257 261 265 269 273 276 279 281 286 294 296 291 288 287 282 274 268 265 263 265 270 279 289 296 302 310 318
236 237 237 238 239 239 238 239 239 239 238 238 238 239 239 239 239 239 239 239 238 237 235 234 233 233 233 234 233 235 237 238 237 236 235 233 232 232 231 232 233 233 233 233 232 231 231 230 232 234 238 245 251 256 259 259 257 257 259 262 265 269 271 273 277 280 285 291 292 287 282 278 270 265 263 262 264 269 274 283 294 300 304 311 317
235 237 238 238 239 239 239 239 240 239 238 238 238 239 239 240 240 239 239 239 238 237 236 235 234 233 232 232 233 234 235 236 236 235 234 233 233 232 233 234 234 234 234 235 234 232 232 232 233 234 237 243 249 254 257 259 259 258 260 264 267 269 271 273 275 280 283 284 285 283 278 275 268 261 263 267 271 274 281 290 297 300 304 310 315
234 237 237 236 237 238 239 240 240 239 239 238 239 239 239 240 240 240 239 239 239 237 236 235 235 233 231 231 231 232 234 235 236 234 234 234 233 233 233 234 234 235 235 236 235 233 234 235 235 235 236 239 245 250 254 257 259 259 260 264 267 269 272 273 274 277 278 277 279 281 278 276 272 265 267 275 281 287 293 296 296 298 305 311 314
234 236 236 235 235 238 239 239 239 239 239 239 240 241 240 240 240 240 240 239 240 238 236 235 235 234 232 230 230 231 233 234 235 235 234 235 234 233 233 233 234 235 236 236 235 234 235 236 237 237 236 237 241 245 249 253 256 257 259 262 266 268 269 270 271 271 272 271 274 279 281 279 275 271 273 281 292 300 301 299 298 301 304 309 313
234 235 235 234 235 237 238 239 239 239 240 241 241 241 241 240 240 241 240 240 240 239 237 235 235 235 234 232 231 231 232 233 233 234 234 235 234 234 234 233 234 235 235 235 234 234 234 236 238 238 237 237 239 241 245 248 251 254 256 257 260 262 264 266 266 265 268 270 272 278 280 277 272 271 276 288 297 298 296 296 299 303 306 309 313
235 236 235 234 236 238 238 239 239 240 241 242 241 241 241 241 241 241 241 240 240 239 237 236 235 235 235 234 232 232 232 232 231 231 233 234 234 233 234 234 234 235 235 235 234 233 233 235 237 238 237 237 238 240 242 244 247 250 252 253 254 256 259 261 262 263 267 270 273 277 278 275 271 272 280 289 293 293 294 296 299 303 306 310 314
235 235 235 235 237 238 238 238 239 240 241 241 241 241 241 241 241 241 241 241 240 239 238 236 235 235 235 234 233 233 233 232 230 229 230 232 233 232 233 233 234 235 235 235 234 233 232 233 236 237 237 237 238 241 242 243 247 250 251 251 252 254 256 257 259 263 266 268 272 276 277 275 273 275 282 286 287 291 296 300 302 305 307 310 312
235 234 235 237 238 238 237 237 239 239 239 240 240 240 240 240 240 240 240 241 241 240 239 237 236 236 235 233 233 234 234 232 229 228 228 230 232 233 232 233 234 235 235 235 234 233 232 233 235 237 238 239 240 242 244 245 247 250 252 251 250 251 253 255 258 261 262 264 269 273 273 272 272 274 279 283 287 293 298 301 304 306 308 309 309
234 233 235 237 237 237 237 236 237 238 238 238 239 239 239 240 239 239 240 240 240 240 239 237 236 236 235 233 233 234 235 233 230 227 227 229 231 233 233 233 234 235 236 235 234 234 233 234 236 237 238 239 241 243 244 245 246 247 250 250 249 248 249 252 256 259 259 260 265 268 267 267 270 273 276 281 288 295 299 301 302 303 305 305 305
233 233 235 236 234 234 235 235 236 237 237 237 237 237 238 239 239 239 239 239 239 239 239 238 236 236 235 234 233 234 235 235 232 229 228 228 230 233 234 234 234 235 236 236 235 235 234 235 237 238 239 240 242 244 246 248 248 246 247 249 249 248 247 249 254 257 256 256 259 262 262 263 266 271 275 280 287 294 299 300 300 300 300 302 306
232 233 233 233 233 233 233 233 235 236 236 236 236 236 237 238 239 239 239 239 239 239 239 238 237 236 236 235 234 233 235 236 233 230 229 229 230 233 235 234 234 235 236 237 237 236 235 236 237 238 239 240 243 246 248 250 250 248 246 247 247 246 245 245 248 252 252 252 253 254 258 260 262 267 274 280 289 296 298 297 297 297 299 303 304
232 233 232 232 233 232 232 233 234 235 235 235 234 235 237 238 239 239 239 238 238 239 239 239 238 237 237 236 236 234 235 236 234 232 231 230 230 233 236 236 236 236 236 237 237 238 236 236 237 238 239 241 243 247 250 252 252 250 247 246 244 244 243 240 241 245 248 250 250 251 255 259 260 264 272 282 292 296 294 294 297 298 301 302 304
231 232 231 231 231 231 232 232 233 233 234 233 234 235 236 237 238 238 238 238 238 239 239 239 239 239 238 238 238 237 235 236 235 233 232 232 231 233 235 237 238 237 237 236 237 238 238 237 236 237 238 241 243 246 250 253 254 251 248 246 244 243 241 238 238 243 247 248 249 250 254 257 258 263 273 285 291 291 291 296 300 301 302 304 307
231 230 230 231 231 231 231 231 231 232 233 232 233 234 236 237 238 237 238 239 238 238 239 239 239 240 240 239 240 239 237 236 236 234 233 232 232 233 234 236 238 238 237 236 236 237 237 235 234 235 236 239 241 244 247 250 251 249 247 246 243 240 237 235 236 239 242 243 245 248 252 254 256 263 275 284 287 288 293 301 304 304 305 307 309
232 232 232 232 232 231 232 233 233 233 233 234 235 236 237 238 238 237 237 237 237 237 238 238 237 238 239 239 240 241 239 238 236 235 234 233 233 233 233 234 236 238 237 236 235 235 235 233 231 231 233 235 237 239 242 244 245 246 246 243 238 234 233 232 232 233 235 238 242 247 249 251 254 263 273 279 281 288 297 302 303 302 303 306 306
234 235 234 234 233 234 236 238 237 236 236 236 237 238 239 239 238 238 237 236 237 238 238 236 235 237 238 239 240 241 242 241 240 237 235 235 235 234 234 233 235 237 237 235 235 234 233 230 228 228 230 233 234 235 239 241 241 241 242 239 232 228 227 226 226 228 232 236 241 244 244 247 254 262 268 274 281 290 298 299 296 294 294 298 295
236 237 236 236 237 238 239 239 238 237 239 240 239 239 239 239 239 239 238 237 237 237 235 234 234 236 238 239 240 241 242 243 243 241 238 237 237 237 235 234 235 236 236 234 233 232 231 228 225 226 229 231 232 232 236 238 237 237 238 234 228 225 225 222 222 227 233 236 237 238 238 241 250 256 263 275 285 293 298 295 292 292 290 289 288
238 237 236 237 239 239 238 238 239 239 240 242 241 240 240 241 241 240 239 239 238 236 234 233 233 235 238 238 239 240 241 241 243 243 241 239 239 239 237 235 234 235 234 233 232 230 228 226 224 224 226 228 228 228 231 232 232 232 232 230 227 224 221 219 219 226 231 232 231 229 231 236 243 251 264 279 286 290 295 294 292 291 288 286 289
240 238 237 238 239 239 239 239 241 242 242 242 242 242 242 242 242 241 241 240 238 235 233 232 232 234 235 235 236 240 241 241 242 243 242 241 240 240 239 236 234 234 233 232 231 230 227 225 225 224 223 223 223 223 224 226 227 226 226 227 225 220 214 213 217 222 224 223 222 223 225 230 236 248 263 274 280 286 291 291 290 288 288 293 297
243 241 241 240 240 241 241 241 242 243 242 242 242 243 242 241 242 242 241 239 237 235 235 234 234 233 232 232 236 240 242 243 242 243 243 242 241 240 238 235 233 233 233 231 230 229 226 226 226 224 221 221 220 218 220 223 224 222 221 220 214 205 205 211 216 219 219 217 218 220 222 225 232 243 252 258 268 280 284 283 284 288 294 302 307
242 242 243 243 243 244 245 244 243 243 243 243 243 243 242 241 241 242 242 239 237 236 236 237 236 234 234 235 237 239 242 244 244 243 243 242 240 240 239 235 232 232 231 230 229 227 225 226 227 225 224 223 220 217 218 220 220 216 211 207 200 196 200 208 212 215 215 214 215 217 220 223 229 235 238 246 259 268 271 275 282 292 300 305 309
240 242 245 246 246 247 248 247 246 246 246 246 244 243 242 242 242 242 241 240 237 236 238 239 236 235 236 237 237 238 240 242 243 242 241 240 239 238 237 233 230 230 229 228 227 225 224 225 226 227 226 225 223 220 216 212 210 206 201 197 194 195 199 204 208 212 212 212 214 216 219 222 226 229 232 243 255 261 267 277 285 293 301 305 308
240 243 247 249 250 251 251 251 251 250 250 248 245 244 244 242 241 241 240 240 238 237 237 238 237 238 239 239 238 238 237 238 241 241 239 238 238 237 234 230 227 225 226 226 224 222 222 224 225 225 224 222 220 215 208 202 199 197 195 192 191 195 199 203 208 211 211 211 213 215 217 219 222 225 231 243 254 262 270 280 288 294 300 304 308
239 243 247 250 252 253 253 253 253 253 252 249 247 248 247 244 243 242 240 239 237 236 236 236 239 240 240 239 239 237 235 237 241 241 238 237 236 234 230 226 223 221 221 222 222 222 222 222 223 223 219 215 213 208 202 197 193 191 190 190 192 195 200 205 209 210 210 212 212 211 214 218 220 224 232 240 247 256 267 275 284 293 298 302 307
233 240 244 246 248 250 251 253 253 253 253 252 249 248 247 246 245 244 240 237 236 236 236 237 238 240 240 238 238 237 238 239 241 239 236 234 233 231 227 222 218 217 218 220 220 221 222 221 221 220 214 205 203 202 198 193 189 186 186 189 193 197 202 206 210 212 212 212 209 208 212 218 221 226 230 235 242 253 264 272 281 290 294 299 305
231 238 242 245 247 247 248 250 250 251 253 254 252 250 248 248 247 246 246 243 239 237 238 238 239 241 241 238 236 236 236 237 239 240 238 234 232 230 225 219 213 211 213 215 214 216 221 220 214 206 200 194 193 193 192 190 188 186 186 188 193 197 201 203 207 210 210 207 205 209 215 219 223 226 227 234 247 256 264 273 282 287 292 298 302
233 235 236 239 242 244 246 248 249 250 250 252 254 253 252 252 252 252 254 254 250 246 244 243 245 247 246 242 238 237 238 240 243 244 243 240 236 231 224 217 212 208 207 208 206 209 214 212 200 192 191 192 192 191 189 189 189 188 188 191 194 196 197 201 205 207 206 205 207 213 217 218 221 225 230 238 250 258 265 275 283 287 291 297 298
234 234 235 237 239 241 243 244 248 251 252 253 256 255 254 253 254 254 256 257 255 253 251 249 250 251 249 246 245 246 249 252 249 246 244 244 240 233 223 216 212 210 208 205 204 207 205 198 193 196 198 197 195 193 191 190 191 190 190 193 196 196 197 201 206 206 205 206 210 213 214 216 221 228 235 242 251 259 267 273 279 285 290 294 294
277 263 258 257 254 252 251 249 249 252 252 253 256 258 257 257 256 256 257 257 256 255 254 253 253 251 249 248 249 250 253 254 249 243 242 241 237 231 224 216 211 209 208 206 205 203 198 192 195 200 201 199 197 195 193 193 193 192 192 193 195 196 198 201 204 204 204 206 210 211 212 216 224 232 238 243 252 261 268 271 276 284 289 291 288
337 333 320 305 293 281 270 263 259 256 252 251 252 255 258 260 260 258 258 257 256 255 256 256 255 253 250 249 247 246 247 247 245 242 239 235 231 228 222 217 213 210 207 205 203 199 195 195 198 198 197 197 198 197 195 195 196 196 195 195 195 196 199 202 203 204 206 208 209 211 213 217 226 236 241 245 252 260 266 269 274 282 288 289 286
16 11 3 355 345 332 317 303 290 280 272 266 261 259 261 263 264 264 262 260 258 257 255 255 254 253 252 250 247 246 245 246 246 244 238 232 227 220 212 211 214 213 208 204 199 194 194 198 200 198 196 195 196 196 196 197 198 198 198 198 198 198 200 203 204 204 206 208 208 210 214 221 230 238 242 246 251 256 259 264 272 281 286 285 279
48 43 36 28 19 9 359 349 338 325 311 299 287 278 272 269 269 270 270 270 268 265 261 259 257 254 252 250 248 246 245 244 244 244 239 232 225 218 210 208 210 210 208 204 195 189 194 202 202 197 195 194 194 195 195 196 199 200 198 198 198 200 202 203 201 203 205 207 209 211 217 226 234 240 243 246 248 250 253 261 272 279 281 275 268
52 47 42 36 31 24 15 7 2 359 351 340 327 311 296 284 275 272 273 274 274 272 271 268 264 259 256 253 249 247 245 243 242 242 238 229 220 215 209 202 200 201 201 199 193 190 198 206 203 197 195 195 194 194 194 196 199 199 197 196 196 200 202 200 199 203 206 207 210 215 222 230 235 238 241 242 244 247 253 261 269 273 271 265 266
53 47 45 44 41 34 25 17 14 19 24 25 23 18 8 348 319 299 291 287 286 286 284 280 275 269 264 259 252 247 244 241 239 238 235 226 216 210 203 195 193 193 191 189 191 195 201 203 201 198 196 194 193 194 195 197 197 195 196 197 199 201 201 199 200 204 205 206 213 220 227 234 236 236 236 238 242 247 252 256 259 260 260 259 266
55 49 48 49 44 36 29 22 20 25 35 41 42 41 37 29 18 6 354 340 326 316 311 305 292 278 268 262 253 244 240 238 237 234 230 222 212 206 200 194 190 187 183 182 188 195 200 201 202 202 200 197 196 196 196 195 194 194 195 199 202 203 202 199 200 202 204 209 219 227 232 237 236 233 232 235 240 243 245 249 252 255 261 269 276
55 51 50 49 46 39 32 25 21 23 31 40 46 49 49 47 43 35 26 17 7 352 342 329 302 278 269 262 249 235 230 229 227 222 215 209 203 199 195 190 185 181 180 182 187 191 194 197 199 201 201 200 199 197 193 190 191 194 196 199 202 201 199 197 198 202 207 215 224 230 235 236 233 231 231 233 233 233 237 244 246 244 255 275 284
51 51 53 56 54 47 35 26 22 22 29 41 50 54 56 57 55 46 34 30 32 29 18 358 316 284 283 265 239 225 219 214 209 204 198 193 191 189 184 178 176 179 184 188 189 189 190 192 194 197 200 200 197 193 189 188 191 194 197 199 198 196 195 196 200 206 213 221 227 232 235 233 232 232 231 226 223 227 236 243 241 231 234 253 268
45 46 51 60 66 61 45 32 28 28 34 46 52 53 51 49 44 36 31 34 42 47 44 37 30 12 341 266 229 232 235 210 194 188 183 176 173 172 168 166 173 184 190 190 189 188 187 188 190 193 196 196 192 188 187 189 193 196 198 198 196 194 195 199 205 211 219 224 229 231 231 230 228 228 225 222 224 231 238 240 238 237 243 252 261
40 38 40 50 67 72 58 44 40 42 46 51 53 53 49 40 33 34 40 44 48 54 56 55 56 59 63 81 145 216 235 192 171 164 159 154 152 151 153 163 178 189 192 191 189 187 185 186 188 191 192 190 188 187 188 192 196 197 196 194 193 195 198 202 208 216 220 223 224 223 221 221 221 221 222 226 230 234 239 239 236 240 251 260 266
35 33 32 35 52 68 67 57 53 53 51 48 51 60 55 38 30 34 47 57 57 59 68 74 74 75 75 71 73 84 92 102 125 139 144 145 144 144 150 166 182 191 195 194 189 187 186 186 188 189 188 187 186 187 190 194 196 194 193 192 193 196 200 205 211 216 216 215 215 214 215 219 221 222 226 230 233 235 239 241 238 238 243 251 261
33 30 28 29 36 46 54 57 56 57 52 34 31 52 48 30 27 31 38 58 71 64 74 92 99 96 93 86 80 87 95 98 107 125 134 138 141 147 159 174 186 194 197 195 190 188 187 186 187 187 186 185 186 189 193 194 193 192 192 193 196 199 203 207 210 210 209 209 208 210 215 220 222 223 226 229 233 237 241 243 242 240 240 244 255
37 34 31 30 29 28 31 38 43 48 50 35 12 5 1 9 24 34 35 48 96 98 93 109 122 125 124 123 121 117 119 121 123 126 130 136 145 160 174 185 190 192 193 191 188 186 186 186 186 185 185 187 189 192 193 193 192 193 195 197 199 202 204 206 207 207 207 205 203 206 212 216 217 221 226 231 237 240 242 245 244 240 238 242 251
43 42 39 36 33 31 30 30 28 32 43 47 35 29 14 360 16 27 26 25 99 146 143 137 141 147 148 148 152 154 149 145 145 149 156 164 170 176 182 185 186 187 187 186 184 184 184 185 185 185 186 188 190 191 191 191 193 196 199 202 204 205 205 205 205 205 202 198 196 199 206 211 217 225 233 239 244 243 240 241 242 239 238 243 251
51 51 49 44 41 38 36 34 29 23 25 30 24 21 24 13 6 12 23 35 120 173 175 169 164 164 164 166 171 172 170 168 167 167 170 174 177 179 180 180 180 180 180 180 180 181 182 184 185 187 187 187 186 187 188 189 192 196 200 203 204 203 201 201 202 200 198 196 195 198 207 216 227 236 240 243 246 243 238 236 236 237 239 243 251
59 59 55 50 48 47 45 43 41 33 26 19 8 357 1 10 4 1 17 58 130 188 195 194 191 187 181 180 183 184 181 178 176 176 177 178 177 175 175 175 176 178 177 177 178 179 181 183 186 188 188 186 185 186 187 189 191 195 196 196 196 195 196 198 198 196 197 200 202 210 220 230 239 244 245 245 244 243 241 238 236 238 243 247 253
58 58 56 54 53 54 54 52 51 47 41 35 26 9 351 354 2 1 5 23 46 196 202 201 202 203 199 196 196 196 191 185 184 185 184 180 174 170 170 172 176 178 178 177 177 178 179 181 183 185 187 188 189 189 190 192 194 196 195 194 193 194 197 199 198 197 200 206 212 224 236 242 247 251 250 247 244 243 241 238 236 238 245 250 254
53 52 52 52 52 53 54 54 53 52 50 46 42 35 24 15 12 10 7 8 9 349 229 220 216 211 206 204 209 214 209 196 192 191 184 174 166 164 166 169 174 177 178 178 178 178 180 183 184 185 186 189 191 192 194 195 197 197 195 193 193 194 198 201 202 204 211 216 223 235 246 252 255 256 254 249 244 241 238 235 235 238 245 251 254
54 51 50 51 52 52 53 54 55 55 55 54 50 45 41 38 38 39 38 36 45 63 83 176 201 193 184 180 182 187 182 169 168 172 166 158 157 160 163 166 169 172 174 177 180 181 184 188 188 187 187 188 190 193 195 197 198 197 195 193 193 195 199 204 209 216 223 229 235 246 257 262 262 258 252 245 240 236 235 237 240 242 245 246 247
56 53 51 51 51 50 50 53 55 56 57 58 57 53 51 50 50 51 53 58 69 78 83 90 112 136 139 135 133 138 148 152 155 157 154 152 154 158 160 161 166 171 175 180 185 187 187 188 188 188 189 190 191 193 196 198 198 195 193 193 196 198 201 207 217 225 231 238 248 260 268 268 263 254 245 237 233 234 235 237 238 239 237 236 237